LXJ347 KALB-KTEB

Flight info

Callsign LXJ347
Flight time 0h 31m
Altitude 12000
Route ALB V489 COATE
Aircraft E55P/M-SBDGRW/LB2

Departure

Time 2026-04-20 10:15
Airport Albany International Airport (KALB)

Arrival

Time 2026-04-20 10:47
Airport Teterboro Airport (KTEB)
Time Latitude Longitude Altitude Speed Heading
2026-04-20 10:03 42.73946 -73.80677 276 ft 0 kts 358°
2026-04-20 10:12 42.73961 -73.80676 276 ft 7 kts
2026-04-20 10:12 42.73998 -73.80618 277 ft 9 kts 112°
2026-04-20 10:12 42.73939 -73.80585 278 ft 10 kts 177°
2026-04-20 10:13 42.73864 -73.80582 278 ft 11 kts 178°
2026-04-20 10:13 42.73784 -73.80578 279 ft 10 kts 178°
2026-04-20 10:13 42.73737 -73.80559 280 ft 6 kts 131°
2026-04-20 10:13 42.73731 -73.80543 281 ft 0 kts 110°
2026-04-20 10:14 42.73728 -73.80533 281 ft 4 kts 104°
2026-04-20 10:14 42.73727 -73.80481 282 ft 6 kts 80°
2026-04-20 10:14 42.73756 -73.80429 281 ft 8 kts 12°
2026-04-20 10:15 42.73896 -73.80434 281 ft 53 kts 358°
2026-04-20 10:15 42.74559 -73.80463 319 ft 127 kts 358°
2026-04-20 10:15 42.75497 -73.80527 1004 ft 146 kts 350°
2026-04-20 10:15 42.76377 -73.81273 1720 ft 163 kts 298°
2026-04-20 10:16 42.76482 -73.82767 2534 ft 175 kts 249°
2026-04-20 10:16 42.75616 -73.83921 3484 ft 191 kts 211°
2026-04-20 10:16 42.74339 -73.84636 4245 ft 210 kts 207°
2026-04-20 10:16 42.72922 -73.85362 5114 ft 224 kts 206°
2026-04-20 10:17 42.71427 -73.86087 6012 ft 236 kts 205°
2026-04-20 10:17 42.69935 -73.86880 7175 ft 235 kts 210°
2026-04-20 10:17 42.68500 -73.87835 8435 ft 231 kts 213°
2026-04-20 10:17 42.67080 -73.88811 9474 ft 236 kts 213°
2026-04-20 10:18 42.65638 -73.89794 10585 ft 238 kts 213°
2026-04-20 10:18 42.64171 -73.90795 11640 ft 242 kts 213°
2026-04-20 10:18 42.62593 -73.91879 11966 ft 273 kts 213°
2026-04-20 10:18 42.60778 -73.93113 12004 ft 309 kts 212°
2026-04-20 10:19 42.58775 -73.94468 11996 ft 329 kts 212°
2026-04-20 10:19 42.56707 -73.95863 11982 ft 330 kts 212°
2026-04-20 10:19 42.54662 -73.97245 11973 ft 328 kts 212°
2026-04-20 10:19 42.52630 -73.98622 11970 ft 327 kts 212°
2026-04-20 10:20 42.50575 -74.00009 11968 ft 327 kts 212°
2026-04-20 10:20 42.48552 -74.01381 11968 ft 327 kts 212°
2026-04-20 10:20 42.46518 -74.02754 11965 ft 327 kts 212°
2026-04-20 10:20 42.44491 -74.04121 11963 ft 327 kts 212°
2026-04-20 10:21 42.42444 -74.05502 11960 ft 327 kts 212°
2026-04-20 10:21 42.40408 -74.06874 11956 ft 327 kts 212°
2026-04-20 10:21 42.38383 -74.08238 11955 ft 327 kts 212°
2026-04-20 10:21 42.36348 -74.09609 11956 ft 328 kts 212°
2026-04-20 10:22 42.34307 -74.10980 11954 ft 327 kts 212°
2026-04-20 10:22 42.32256 -74.12359 11954 ft 327 kts 212°
2026-04-20 10:22 42.30225 -74.13721 11950 ft 327 kts 212°
2026-04-20 10:22 42.28191 -74.15083 11948 ft 327 kts 212°
2026-04-20 10:23 42.26140 -74.16460 11943 ft 327 kts 212°
2026-04-20 10:23 42.24107 -74.17823 11945 ft 326 kts 212°
2026-04-20 10:23 42.22096 -74.19186 11947 ft 325 kts 213°
2026-04-20 10:23 42.20114 -74.20649 11950 ft 325 kts 214°
2026-04-20 10:24 42.18116 -74.22106 11949 ft 325 kts 214°
2026-04-20 10:24 42.16122 -74.23561 11946 ft 325 kts 214°
2026-04-20 10:24 42.14146 -74.25005 11944 ft 325 kts 214°
2026-04-20 10:24 42.12151 -74.26457 11943 ft 325 kts 214°
2026-04-20 10:25 42.10160 -74.27910 11939 ft 325 kts 214°
2026-04-20 10:25 42.08172 -74.29358 11935 ft 325 kts 214°
2026-04-20 10:25 42.06189 -74.30808 11931 ft 325 kts 214°
2026-04-20 10:25 42.04200 -74.32252 11932 ft 325 kts 214°
2026-04-20 10:26 42.02225 -74.33685 11932 ft 325 kts 214°
2026-04-20 10:26 42.00234 -74.35133 11927 ft 324 kts 214°
2026-04-20 10:26 41.98260 -74.36563 11926 ft 324 kts 214°
2026-04-20 10:26 41.96267 -74.38010 11931 ft 324 kts 214°
2026-04-20 10:27 41.94298 -74.39436 11936 ft 324 kts 214°
2026-04-20 10:27 41.92296 -74.40885 11940 ft 324 kts 214°
2026-04-20 10:27 41.90318 -74.42319 11941 ft 324 kts 214°
2026-04-20 10:27 41.88349 -74.43742 11946 ft 324 kts 214°
2026-04-20 10:28 41.86364 -74.45174 11949 ft 324 kts 214°
2026-04-20 10:28 41.84378 -74.46610 11955 ft 324 kts 214°
2026-04-20 10:28 41.82384 -74.48050 11961 ft 324 kts 214°
2026-04-20 10:28 41.80397 -74.49482 11967 ft 324 kts 214°
2026-04-20 10:29 41.78422 -74.50906 11969 ft 318 kts 214°
2026-04-20 10:29 41.76512 -74.52249 11945 ft 306 kts 210°
2026-04-20 10:29 41.74443 -74.52850 11783 ft 300 kts 193°
2026-04-20 10:29 41.72436 -74.53220 11523 ft 284 kts 195°
2026-04-20 10:30 41.70504 -74.53581 11157 ft 277 kts 195°
2026-04-20 10:30 41.68621 -74.53940 10799 ft 270 kts 195°
2026-04-20 10:30 41.66784 -74.54288 10448 ft 269 kts 195°
2026-04-20 10:30 41.64936 -74.54638 10099 ft 268 kts 195°
2026-04-20 10:31 41.63099 -74.54987 9778 ft 267 kts 194°
2026-04-20 10:31 41.61243 -74.55340 9454 ft 267 kts 194°
2026-04-20 10:31 41.59413 -74.55688 9134 ft 267 kts 194°
2026-04-20 10:31 41.57563 -74.56037 8813 ft 266 kts 194°
2026-04-20 10:32 41.55738 -74.56378 8491 ft 266 kts 194°
2026-04-20 10:32 41.53920 -74.56726 8140 ft 266 kts 193°
2026-04-20 10:32 41.52085 -74.57074 7767 ft 266 kts 193°
2026-04-20 10:32 41.50275 -74.57412 7396 ft 263 kts 193°
2026-04-20 10:33 41.48454 -74.57754 7018 ft 261 kts 193°
2026-04-20 10:33 41.46669 -74.58088 6673 ft 258 kts 193°
2026-04-20 10:33 41.44907 -74.58418 6324 ft 256 kts 193°
2026-04-20 10:33 41.43160 -74.58747 6011 ft 254 kts 193°
2026-04-20 10:34 41.41409 -74.59074 5963 ft 257 kts 193°
2026-04-20 10:34 41.39609 -74.59057 5946 ft 267 kts 168°
2026-04-20 10:34 41.38046 -74.57652 5966 ft 276 kts 134°
2026-04-20 10:35 41.35570 -74.53722 5959 ft 278 kts 133°
2026-04-20 10:35 41.34344 -74.51774 5959 ft 278 kts 133°
2026-04-20 10:35 41.33087 -74.49788 5958 ft 278 kts 133°
2026-04-20 10:35 41.31844 -74.47818 5962 ft 278 kts 133°
2026-04-20 10:36 41.30608 -74.45869 5965 ft 278 kts 133°
2026-04-20 10:36 41.29364 -74.43900 5966 ft 278 kts 133°
2026-04-20 10:36 41.28120 -74.41925 5963 ft 278 kts 133°
2026-04-20 10:36 41.26871 -74.39945 5958 ft 279 kts 133°
2026-04-20 10:37 41.25634 -74.37985 5806 ft 278 kts 133°
2026-04-20 10:37 41.24390 -74.36025 5436 ft 279 kts 133°
2026-04-20 10:37 41.23131 -74.34064 5043 ft 277 kts 133°
2026-04-20 10:37 41.21885 -74.32142 4659 ft 275 kts 133°
2026-04-20 10:38 41.20639 -74.30238 4274 ft 273 kts 133°
2026-04-20 10:38 41.19407 -74.28359 3892 ft 271 kts 133°
2026-04-20 10:38 41.18167 -74.26485 3506 ft 268 kts 133°
2026-04-20 10:38 41.16947 -74.24648 3140 ft 264 kts 133°
2026-04-20 10:39 41.15748 -74.22833 3004 ft 253 kts 133°
2026-04-20 10:39 41.14616 -74.21141 2998 ft 245 kts 132°
2026-04-20 10:39 41.13502 -74.19435 3006 ft 239 kts 132°
2026-04-20 10:39 41.12414 -74.17799 3004 ft 234 kts 133°
2026-04-20 10:40 41.11337 -74.16222 2981 ft 231 kts 132°
2026-04-20 10:40 41.10277 -74.14623 2965 ft 228 kts 132°
2026-04-20 10:40 41.09247 -74.13087 3028 ft 220 kts 133°
2026-04-20 10:40 41.08253 -74.11624 2984 ft 212 kts 133°
2026-04-20 10:41 41.07275 -74.10169 2691 ft 209 kts 132°
2026-04-20 10:41 41.06325 -74.08742 2441 ft 205 kts 133°
2026-04-20 10:41 41.05387 -74.07328 2175 ft 203 kts 132°
2026-04-20 10:41 41.04478 -74.05940 2009 ft 197 kts 133°
2026-04-20 10:42 41.03519 -74.04690 1997 ft 193 kts 151°
2026-04-20 10:42 41.02257 -74.04377 1993 ft 184 kts 191°
2026-04-20 10:42 41.00985 -74.04639 1994 ft 184 kts 191°
2026-04-20 10:42 40.99731 -74.04816 2006 ft 180 kts 188°
2026-04-20 10:43 40.98508 -74.04919 2034 ft 173 kts 186°
2026-04-20 10:43 40.97324 -74.05017 2013 ft 169 kts 187°
2026-04-20 10:43 40.96162 -74.05114 2013 ft 164 kts 187°
2026-04-20 10:43 40.95030 -74.05189 1960 ft 161 kts 185°
2026-04-20 10:44 40.93901 -74.05264 1758 ft 163 kts 188°
2026-04-20 10:44 40.92804 -74.05363 1561 ft 147 kts 186°
2026-04-20 10:44 40.91834 -74.05437 1361 ft 134 kts 186°
2026-04-20 10:44 40.90932 -74.05509 1157 ft 126 kts 186°
2026-04-20 10:45 40.90078 -74.05579 970 ft 120 kts 185°
2026-04-20 10:45 40.89258 -74.05636 795 ft 114 kts 184°
2026-04-20 10:45 40.88487 -74.05698 636 ft 110 kts 185°
2026-04-20 10:45 40.87734 -74.05747 489 ft 107 kts 183°
2026-04-20 10:46 40.86993 -74.05804 345 ft 106 kts 184°
2026-04-20 10:46 40.86263 -74.05864 193 ft 105 kts 182°
2026-04-20 10:46 40.85533 -74.05917 30 ft 103 kts 183°
2026-04-20 10:46 40.84883 -74.05964 8 ft 72 kts 182°
2026-04-20 10:47 40.84632 -74.05996 8 ft 13 kts 224°
2026-04-20 10:47 40.84657 -74.06098 8 ft 13 kts 309°
2026-04-20 10:47 40.84772 -74.06116 8 ft 23 kts
2026-04-20 10:47 40.84943 -74.06103 8 ft 25 kts
2026-04-20 10:48 40.85119 -74.06090 8 ft 25 kts
2026-04-20 10:48 40.85254 -74.05959 8 ft 25 kts 47°
2026-04-20 10:48 40.85373 -74.05783 8 ft 25 kts 48°
2026-04-20 10:48 40.85437 -74.05635 8 ft 13 kts 117°
2026-04-20 10:49 40.85412 -74.05575 8 ft 0 kts 123°